Вернуться в каталог

COSMOS 1084

АктивенНавигацияLEO
NORAD 11299·PAYLOAD·🇷🇺 Russia

Запущен Mar 15, 1979 с Plesetsk Cosmodrome

Loading…

Ближайшие Пролёты (ближайшие 24 часа)

TLE

СвежийSource: Space-Track

Эпоха: Sep 14, 2026, 13:48 UTC

1 11299U 79024D   26257.57563755 -.00000012  00000-0  26079-4 0  9991
2 11299  74.0338 200.3339 0002293 321.4540 151.3212 12.50494992168289

Отслеживайте COSMOS 1084 в реальном времени с AllMySat

Download on the App Store